Home   Weather   Greater Sudbury   Past weeks

Flag for Canada Past Weather in Greater Sudbury, Ontario, Canada — Yesterday and Last 2 Weeks

Now
45 °F

Cool.


Feels Like: 42 °F
Forecast: 37 / 49 °F
Wind: 6 mph from Southeast

Location: Killarney

Current Time: Apr 27, 2017 at 8:47:31 pm

Latest Report: Apr 27, 2017 at 8:00 pm


Visibility: N/A

Pressure: 29.56 "Hg

Humidity: 95%

Dew Point: 44 °F

Location of Greater SudburyLocation

Past Weather in Greater Sudbury — Graph

°F

Greater Sudbury Temperature Yesterday

Maximum temperature yesterday: 49 °F (at 5:00 pm)
Minimum temperature yesterday: 45 °F (at 12:00 am)
Average temperature yesterday: 47 °F

High & Low Weather Summary for the Past Weeks

 TemperatureHumidityPressure
High55 °F (Apr 22, 6:00 pm)100% (Apr 21, 8:00 am)30.57 "Hg (Apr 21, 8:00 am)
Low31 °F (Apr 18, 7:00 am)28% (Apr 22, 7:00 pm)29.48 "Hg (Apr 27, 5:00 pm)
Average42 °F72%30.09 "Hg
* Reported Apr 12 7:00 pm — Apr 27 7:00 pm, Greater Sudbury, Weather by CustomWeather, © 2017

Note: Actual official high and low records may vary slightly from our data, if they occured in-between our weather recording intervals... More about our weather records

Advertising

Greater Sudbury Weather History for the Previous 24 Hours

Scroll right to see more
 ConditionsComfort  
Time TempWeatherWind HumidityBarometerVisibility
7:00 pm
Thu, Apr 27
46 °FCool.13 mph94%29.54 "HgN/A
6:00 pm45 °FCool.10 mph93%29.51 "HgN/A
5:00 pm50 °FCool.8 mph93%29.48 "HgN/A
4:00 pm47 °FCool.16 mph91%29.55 "HgN/A
3:00 pm50 °FCool.8 mph83%29.52 "HgN/A
2:00 pm47 °FCool.8 mph89%29.55 "HgN/A
1:00 pm47 °FCool.8 mph82%29.58 "HgN/A
12:00 pm47 °FCool.7 mph88%29.60 "HgN/A
11:00 am47 °FCool.3 mph88%29.61 "HgN/A
10:00 am48 °FCool.8 mph90%29.59 "HgN/A
9:00 am48 °FCool.9 mph90%29.61 "HgN/A
8:00 am48 °FCool.12 mph91%29.59 "HgN/A
7:00 am49 °FCool.14 mph90%29.60 "HgN/A
6:00 am48 °FCool.9 mph90%29.61 "HgN/A
5:00 am47 °FCool.13 mph90%29.61 "HgN/A
4:00 am49 °FCool.12 mph90%29.62 "HgN/A
3:00 am48 °FCool.14 mph90%29.64 "HgN/A
2:00 am49 °FCool.14 mph89%29.65 "HgN/A
1:00 am51 °FCool.17 mph88%29.65 "HgN/A
12:00 am49 °FCool.17 mph90%29.66 "HgN/A
11:00 pm
Wed, Apr 26
48 °FCool.17 mph89%29.66 "HgN/A
10:00 pm46 °FCool.15 mph90%29.67 "HgN/A
9:00 pm46 °FCool.10 mph89%29.68 "HgN/A
8:00 pm47 °FCool.13 mph86%29.67 "HgN/A
Weather by CustomWeather, © 2017

See weather overviewHow to use our weather pages